Terug naar catalogus

PRAETORIAN SDA_508

ActiefMilitairPO
NORAD 100066·PAYLOAD·🇺🇸 United States

Gelanceerd Jul 16, 2026 vanaf Vandenberg Space Force Base

Loading…

Volgende Passages (komende 24 uur)

TLE

VersSource: Space-Track

Epoch: Sep 13, 2026, 23:17 UTC

1 A0066U 26163H   26256.97082932  .00000137  00000-0  10923-3 0  9990
2 A0066  81.4754 255.9071 0014604  57.2102 303.0461 13.85528362  8192

Volg PRAETORIAN SDA_508 in realtime met AllMySat

Download on the App Store